CHINASAT 1A (ZX 1A)

Last updated on Nov. 19, 2019, 4:25 a.m. UTC

1 37804U 11047A   19321.90428465 -.00000332  00000-0  00000-0 0  9998
2 37804   0.0263  43.2637 0001877 280.9172 187.9024  1.00268381 29980
UTC
Height (km)
Latitude
Longitude
Inclination
Orbital Period
UTC large
Height (km)
Speed (km/s)
/
Latitude / Longitude
Inclination (degrees)
Orbital Period (minutes)
Azimuth
Elevation
Range (km)
Doppler Factor
iOS Compass Heading
iOS Angle

Next 30 passes for location: Hong Kong

Rise time Rise Azimuth (degrees) Set time Set Azimuth (degrees) Duration Max altitude (degrees)

No matching passes for this satellites